Regional Weather Roundup
Issued by NWS

Home | Current Version | Previous Version | Text Only | Print | Product List | Glossary On
Versions: 1 2 3 4 5 6 7 8 9 10 11 12 13 14 15 16 17 18 19 20 21 22 23 24 25 26 27 28 29 30 31 32 33 34 35 36 37 38 39 40 41 42 43 44 45 46 47 48 49 50
000
ASUS45 KBOU 040010
RWRCO

WEATHER ROUNDUP FOR COLORADO
NATIONAL WEATHER SERVICE DENVER/BOULDER CO
600 PM MDT FRI JUL 03 2015

NOTE: "FAIR" INDICATES FEW OR NO CLOUDS BELOW 12000 FEET WITH NO
SIGNIFICANT WEATHER AND/OR OBSTRUCTIONS TO VISIBILITY.

COZ001>005-013-030-031-040100-
...NORTHWEST COLORADO...

CITY           SKY/WX    TMP DP  RH WIND       PRES   REMARKS
CRAIG          SUNNY     90  35  14 VRB3      30.05F
HAYDEN         SUNNY     84  30  14 NE6       30.09F
MEEKER         MOSUNNY   88  45  22 VRB6      30.07F
MOUNT WERNER   NOT AVBL
STEAMBOAT SPGS SUNNY     85  35  17 NW6       30.12F
WALDEN         MOSUNNY   77  32  19 NW13      30.23F
$$

COZ006>008-011-040100-
...WEST CENTRAL VALLEYS...

CITY           SKY/WX    TMP DP  RH WIND       PRES   REMARKS
GRAND JUNCTION MOSUNNY   95  43  16 W10       29.91F
MONTROSE       CLOUDY    82  47  29 E6        30.07S
EAGLE          MOSUNNY   88  41  19 W7        30.10F
RIFLE          MOSUNNY   91  43  18 VRB5      29.99F
DELTA          CLOUDY    90  53  28 E14G20    30.01R
NUCLA          CLOUDY    86  46  25 S6        30.11F
$$

COZ017>023-064>068-040100-
...SOUTHWEST COLORADO...

CITY           SKY/WX    TMP DP  RH WIND       PRES   REMARKS
DURANGO        CLOUDY    75  52  44 SE10      30.18S
CORTEZ         SUNNY     87  49  26 NW7       30.08S
PAGOSA SPRINGS CLOUDY    64  51  62 CALM      30.29F
TELLURIDE      TSTM      58  49  72 CALM      30.42R
WOLF CREEK PAS NOT AVBL
$$

COZ009-010-012-014-032>034-037-058>063-040100-
...CENTRAL COLORADO...

CITY           SKY/WX    TMP DP  RH WIND       PRES   REMARKS
ASPEN          PTSUNNY   76  44  32 S9        30.23F
BUENA VISTA    CLOUDY    71  45  39 SE9       30.25S
COPPER MTN     MOSUNNY   64  28  25 W18G25    30.57F
BERTHOUD PASS  PTSUNNY   46  37  71 MISG      30.63F
COTTONWOOD PAS NOT AVBL
GUNNISON       PTSUNNY   72  43  35 N8G21     30.25S
KREMMLING      SUNNY     88  18   7 N9        30.16F
LEADVILLE      MOSUNNY   71  32  23 VRB6      30.37F
MONARCH PASS   PTSUNNY   55  39  54 SW9       30.67F
SALIDA         CLOUDY    74  51  43 E13G21    30.29S
SUNLIGHT       PTSUNNY   68  41  37 CALM      30.50S
WILKERSON PASS PTSUNNY   50  45  81 CALM      30.56F THUNDER
$$

COZ069>075-040100-
...SAN LUIS VALLEY/SANGRE DE CRISTO MOUNTAINS...

CITY           SKY/WX    TMP DP  RH WIND       PRES   REMARKS
ALAMOSA        CLOUDY    75  45  34 SW7       30.21S
LA VETA PASS   TSTM      52  45  76 MISG      30.45F
SAGUACHE       PTSUNNY   70  46  43 SE14      30.25F
$$

COZ035-036-038>040-040100-
...NORTHERN COLORADO FRONT RANGE...

CITY           SKY/WX    TMP DP  RH WIND       PRES   REMARKS
DENVER INTL AP MOSUNNY   84  53  34 E9        30.06F
DMNS CITY PARK   N/A     81  53  37 S6G13     30.06R
AURORA         MOSUNNY   83  55  38 SE6       30.09F
FRONT RANGE AP PTSUNNY   84  55  37 SE6       30.08F
ERIE MUNI ARPT SUNNY     85  49  28 CALM      30.05S
BOULDER MUN AP SUNNY     82  54  36 E3        30.06S
CENTENNIAL     MOSUNNY   81  54  39 E7        30.10F
BROOMFIELD     MOSUNNY   84  50  30 SE3       30.09F
FORT COLLINS   MOSUNNY   84  55  37 CALM      30.03S
LONGMONT       MOSUNNY   88  55  33 W3        30.06S
$$

COZ041-046-047-076>085-087-088-040100-
...PIKES PEAK/PALMER DIVIDE AND SOUTHERN FOOTHILLS...

CITY           SKY/WX    TMP DP  RH WIND       PRES   REMARKS
COLO. SPRINGS  PTSUNNY   78  54  43 SE8       30.15R
A. F. ACADEMY  LGT RAIN  70  59  68 S2        30.16R
ELLICOTT       MOSUNNY  N/A N/A N/A E8        30.14S
FALCON         MOSUNNY   74  52  45 SE7       30.21R
FORT CARSON    SUNNY     78  55  44 W6        30.11S
LIMON          SUNNY     80  54  40 SE7       30.08F
MONUMENT HILL  NOT AVBL
TRINIDAD       CLOUDY    80  54  40 SW5       30.08F
$$

COZ042>045-048>051-090-091-040100-
...NORTHEAST COLORADO...

CITY           SKY/WX    TMP DP  RH WIND       PRES   REMARKS
GREELEY ARPT   SUNNY     84  57  39 E9        30.03F
AKRON          MOSUNNY   82  56  40 VRB3      30.05F
BURLINGTON     SUNNY     84  54  35 E10       30.03F
WRAY           SUNNY     86  52  30 E8        29.99F
STERLING       SUNNY     82  55  39 CALM        N/A
HOLYOKE        SUNNY     84  52  32 E9        30.01S
FORT MORGAN    SUNNY     81  54  40 E9        30.05S
$$

COZ086-089-092>099-040100-
...SOUTHEAST COLORADO...

CITY           SKY/WX    TMP DP  RH WIND       PRES   REMARKS
PUEBLO         MOSUNNY   89  52  28 SE8       30.00F
LA JUNTA       SUNNY     90  56  31 E13       29.97F
LAMAR          SUNNY     89  58  34 E10       29.95F
SPRINGFIELD      N/A     83  56  39 SE12      30.02F
$$


USA.gov is the U.S. government's official web portal to all federal, state and local government web resources and services.